TimeCDT,TemperatureF,Dew PointF,Humidity,Sea Level PressureIn,VisibilityMPH,Wind Direction,Wind SpeedMPH,Gust SpeedMPH,PrecipitationIn,Events,Conditions,WindDirDegrees,DateUTC
12:15 AM,37.4,28.4,70,30.29,10.0,Calm,Calm,-,N/A,,Overcast,0,2013-03-29 05:15:00
12:35 AM,37.4,30.2,75,30.29,10.0,Calm,Calm,-,N/A,,Mostly Cloudy,0,2013-03-29 05:35:00
12:55 AM,35.6,26.6,70,30.30,10.0,Calm,Calm,-,N/A,,Scattered Clouds,0,2013-03-29 05:55:00
1:15 AM,33.8,28.4,81,30.30,10.0,Calm,Calm,-,N/A,,Scattered Clouds,0,2013-03-29 06:15:00
1:35 AM,33.8,28.4,81,30.30,10.0,Calm,Calm,-,N/A,,Clear,0,2013-03-29 06:35:00
1:55 AM,33.8,28.4,81,30.30,10.0,Calm,Calm,-,N/A,,Clear,0,2013-03-29 06:55:00
2:15 AM,32.0,26.6,80,30.29,10.0,Calm,Calm,-,N/A,,Clear,0,2013-03-29 07:15:00
2:35 AM,30.2,24.8,80,30.28,10.0,Calm,Calm,-,N/A,,Clear,0,2013-03-29 07:35:00
2:55 AM,30.2,26.6,86,30.28,10.0,Calm,Calm,-,N/A,,Clear,0,2013-03-29 07:55:00
3:15 AM,30.2,24.8,80,30.27,10.0,Calm,Calm,-,N/A,,Clear,0,2013-03-29 08:15:00
3:35 AM,28.4,24.8,86,30.27,7.0,Calm,Calm,-,N/A,,Clear,0,2013-03-29 08:35:00
3:55 AM,28.4,24.8,86,30.27,7.0,Calm,Calm,-,N/A,,Clear,0,2013-03-29 08:55:00
4:15 AM,30.2,24.8,80,30.26,7.0,Calm,Calm,-,N/A,,Clear,0,2013-03-29 09:15:00
4:35 AM,28.4,24.8,86,30.26,7.0,Calm,Calm,-,N/A,,Clear,0,2013-03-29 09:35:00
4:55 AM,28.4,24.8,86,30.26,10.0,Calm,Calm,-,N/A,,Clear,0,2013-03-29 09:55:00
5:15 AM,28.4,24.8,86,30.27,7.0,Calm,Calm,-,N/A,,Clear,0,2013-03-29 10:15:00
5:35 AM,30.2,24.8,80,30.27,10.0,Calm,Calm,-,N/A,,Clear,0,2013-03-29 10:35:00
5:55 AM,28.4,24.8,86,30.28,10.0,Calm,Calm,-,N/A,,Clear,0,2013-03-29 10:55:00
6:15 AM,28.4,24.8,86,30.28,7.0,Calm,Calm,-,N/A,,Clear,0,2013-03-29 11:15:00
6:35 AM,28.4,23.0,80,30.28,5.0,Calm,Calm,-,N/A,,Haze,0,2013-03-29 11:35:00
6:55 AM,26.6,23.0,86,30.29,5.0,Calm,Calm,-,N/A,,Clear,0,2013-03-29 11:55:00
7:15 AM,26.6,23.0,86,30.29,2.5,Calm,Calm,-,N/A,,Clear,0,2013-03-29 12:15:00
7:35 AM,28.4,23.0,80,30.30,4.0,Calm,Calm,-,N/A,,Haze,0,2013-03-29 12:35:00
7:55 AM,28.4,24.8,86,30.30,4.0,Calm,Calm,-,N/A,,Clear,0,2013-03-29 12:55:00
8:15 AM,33.8,28.4,81,30.30,5.0,Calm,Calm,-,N/A,,Haze,0,2013-03-29 13:15:00
8:35 AM,35.6,30.2,81,30.31,7.0,Calm,Calm,-,N/A,,Clear,0,2013-03-29 13:35:00
8:55 AM,37.4,30.2,75,30.31,7.0,Calm,Calm,-,N/A,,Clear,0,2013-03-29 13:55:00
9:15 AM,41.0,28.4,61,30.31,10.0,South,3.5,-,N/A,,Clear,170,2013-03-29 14:15:00
9:35 AM,42.8,28.4,57,30.30,10.0,SE,5.8,-,N/A,,Clear,130,2013-03-29 14:35:00
9:55 AM,44.6,26.6,49,30.30,10.0,SE,6.9,-,N/A,,Clear,130,2013-03-29 14:55:00
10:15 AM,46.4,24.8,43,30.30,10.0,ESE,6.9,-,N/A,,Clear,120,2013-03-29 15:15:00
10:35 AM,48.2,23.0,37,30.30,10.0,SE,3.5,-,N/A,,Clear,140,2013-03-29 15:35:00
10:55 AM,50.0,21.2,32,30.30,10.0,East,4.6,-,N/A,,Clear,100,2013-03-29 15:55:00
11:15 AM,51.8,21.2,30,30.30,10.0,ENE,4.6,-,N/A,,Clear,70,2013-03-29 16:15:00
11:55 AM,53.6,21.2,28,30.29,10.0,ESE,4.6,-,N/A,,Clear,120,2013-03-29 16:55:00
12:15 PM,53.6,23.0,30,30.29,10.0,ENE,8.1,-,N/A,,Clear,60,2013-03-29 17:15:00
12:35 PM,53.6,21.2,28,30.28,10.0,SE,5.8,-,N/A,,Clear,130,2013-03-29 17:35:00
12:55 PM,55.4,21.2,26,30.28,10.0,SE,5.8,-,N/A,,Clear,130,2013-03-29 17:55:00
1:15 PM,55.4,21.2,26,30.27,10.0,Calm,Calm,-,N/A,,Clear,0,2013-03-29 18:15:00
1:35 PM,57.2,21.2,25,30.26,10.0,Calm,Calm,-,N/A,,Clear,0,2013-03-29 18:35:00
1:55 PM,57.2,17.6,21,30.25,10.0,ESE,8.1,-,N/A,,Clear,120,2013-03-29 18:55:00
2:15 PM,57.2,21.2,25,30.24,10.0,South,3.5,-,N/A,,Clear,180,2013-03-29 19:15:00
2:35 PM,57.2,19.4,23,30.24,10.0,ENE,9.2,-,N/A,,Clear,60,2013-03-29 19:35:00
2:55 PM,57.2,19.4,23,30.24,10.0,NE,4.6,-,N/A,,Clear,50,2013-03-29 19:55:00
3:15 PM,59.0,17.6,20,30.23,10.0,East,5.8,-,N/A,,Clear,80,2013-03-29 20:15:00
3:35 PM,57.2,19.4,23,30.22,7.0,East,6.9,-,N/A,,Clear,100,2013-03-29 20:35:00
3:55 PM,57.2,19.4,23,30.21,10.0,ENE,6.9,-,N/A,,Clear,60,2013-03-29 20:55:00
4:15 PM,59.0,17.6,20,30.21,10.0,North,3.5,-,N/A,,Clear,10,2013-03-29 21:15:00
4:35 PM,59.0,19.4,22,30.21,10.0,Calm,Calm,-,N/A,,Clear,0,2013-03-29 21:35:00
4:55 PM,59.0,19.4,22,30.20,10.0,Calm,Calm,-,N/A,,Clear,0,2013-03-29 21:55:00
5:15 PM,59.0,17.6,20,30.20,10.0,East,6.9,-,N/A,,Clear,80,2013-03-29 22:15:00
5:35 PM,59.0,17.6,20,30.20,10.0,Calm,Calm,-,N/A,,Clear,0,2013-03-29 22:35:00
5:55 PM,57.2,17.6,21,30.20,10.0,Calm,Calm,-,N/A,,Clear,0,2013-03-29 22:55:00
6:15 PM,57.2,19.4,23,30.20,10.0,ENE,3.5,-,N/A,,Clear,60,2013-03-29 23:15:00
6:35 PM,57.2,19.4,23,30.20,10.0,ESE,4.6,-,N/A,,Clear,120,2013-03-29 23:35:00
6:55 PM,55.4,21.2,26,30.20,10.0,ESE,3.5,-,N/A,,Clear,110,2013-03-29 23:55:00
7:15 PM,53.6,23.0,30,30.20,10.0,Calm,Calm,-,N/A,,Clear,0,2013-03-30 00:15:00
7:35 PM,53.6,21.2,28,30.19,10.0,East,3.5,-,N/A,,Clear,100,2013-03-30 00:35:00
7:55 PM,51.8,23.0,33,30.19,10.0,East,3.5,-,N/A,,Clear,100,2013-03-30 00:55:00
8:15 PM,48.2,24.8,40,30.20,10.0,Calm,Calm,-,N/A,,Clear,0,2013-03-30 01:15:00
8:35 PM,41.0,30.2,65,30.20,10.0,Calm,Calm,-,N/A,,Clear,0,2013-03-30 01:35:00
8:55 PM,42.8,28.4,57,30.21,10.0,Calm,Calm,-,N/A,,Clear,0,2013-03-30 01:55:00
9:15 PM,42.8,28.4,57,30.21,10.0,Calm,Calm,-,N/A,,Clear,0,2013-03-30 02:15:00
9:35 PM,41.0,28.4,61,30.21,10.0,Calm,Calm,-,N/A,,Clear,0,2013-03-30 02:35:00
9:55 PM,41.0,30.2,65,30.21,10.0,Calm,Calm,-,N/A,,Clear,0,2013-03-30 02:55:00
10:15 PM,41.0,30.2,65,30.21,10.0,Calm,Calm,-,N/A,,Clear,0,2013-03-30 03:15:00
10:35 PM,39.2,30.2,70,30.21,10.0,Calm,Calm,-,N/A,,Clear,0,2013-03-30 03:35:00
10:55 PM,37.4,28.4,70,30.21,10.0,Calm,Calm,-,N/A,,Clear,0,2013-03-30 03:55:00
11:15 PM,37.4,28.4,70,30.21,10.0,Calm,Calm,-,N/A,,Clear,0,2013-03-30 04:15:00
11:35 PM,35.6,28.4,75,30.20,10.0,Calm,Calm,-,N/A,,Clear,0,2013-03-30 04:35:00
11:55 PM,35.6,28.4,75,30.20,10.0,Calm,Calm,-,N/A,,Clear,0,2013-03-30 04:55:00